Regional Weather Roundup
Issued by NWS Cleveland, OH

Home | Current Version | Previous Version | Text Only | Print | Product List | Glossary Off
Versions: 1 2 3 4 5 6 7 8 9 10 11 12 13 14 15 16 17 18 19 20 21 22 23 24 25 26 27 28 29 30 31 32 33 34 35 36 37 38 39 40 41 42 43 44 45 46 47 48 49 50

000
ASUS41 KCLE 201612
RWRCLE
OHIO REGIONAL WEATHER ROUNDUP
NATIONAL WEATHER SERVICE WILMINGTON, OH
1200 PM EDT FRI OCT 20 2017

NOTE: "FAIR" INDICATES FEW OR NO CLOUDS BELOW 12,000 FEET WITH NO
SIGNIFICANT WEATHER AND/OR OBSTRUCTIONS TO VISIBILITY.

OHZ001>008-015>018-024>027-034-035-043-044-201700-
   NORTHWEST OHIO

CITY           SKY/WX    TMP DP  RH WIND       PRES   REMARKS
DEFIANCE       FAIR      67  46  47 S7        30.27F
FINDLAY        FAIR      69  37  30 S7        30.28F
TOLEDO EXPRESS FAIR      67  39  35 SE5       30.28F
TOLEDO EXEC    FAIR      66  38  35 S7        30.29F
LIMA           FAIR      68  49  50 S6        30.29F
$$

OHZ009>014-019>023-028>033-038-089-201700-
   NORTHEAST OHIO

CITY           SKY/WX    TMP DP  RH WIND       PRES   REMARKS
CLE-HOPKINS    FAIR      67  44  43 S8        30.31F
CLE-LAKEFRONT  FAIR      67  36  31 SE8       30.28F
CUY CO. ARPT   MOSUNNY   68  46  45 SE9       30.30F
LORAIN-ELYRIA  FAIR      64  44  48 S7        30.30F
ASHTABULA      FAIR      65  35  33 S6        30.31F
AKRON-CANTON   FAIR      65  42  43 SE7       30.31F
WOOSTER        FAIR      65  44  46 VRB6      30.32F
MANSFIELD      FAIR      67  37  33 SE9       30.31F
YOUNGSTOWN     FAIR      65  37  35 VRB5      30.32S
$$

OHZ042-051>053-060>062-070>072-077>081-201700-
  SOUTHWEST OHIO

CITY           SKY/WX    TMP DP  RH WIND       PRES   REMARKS
CINC-COVINGTON FAIR      69  56  62 S5        30.31F
CINC-LUNKEN    FAIR      67  58  72 CALM      30.32F
HAMILTON       FAIR      68  55  63 E3        30.31F
DAYTON         FAIR      67  56  67 CALM      30.31F
WRIGHT-PAT AFB MOSUNNY   66  54  66 CALM      30.30F
DAYTON GENERAL FAIR      67  53  61 CALM      30.30F
WILMINGTON     FAIR      69  55  60 CALM      30.31F
$$

OHZ036-037-039>041-045>050-054>059-063>069-073>076-082>088-201700-
  CENTRAL AND SOUTHEAST OHIO

CITY           SKY/WX    TMP DP  RH WIND       PRES   REMARKS
COLUMBUS       FAIR      65  46  50 SE3       30.31F
OSU AIRPORT    FAIR      66  46  48 S5        30.31F
BOLTON FIELD   SUNNY     66  41  39 SE3       30.32
RICKENBACK AFB FAIR      63  51  63 CALM      30.31F
NEWARK         FAIR      65  44  46 CALM      30.31F
MARION         FAIR      67  34  29 S10       30.31F
LANCASTER      FAIR      67  47  48 CALM      30.32F
ZANESVILLE     FAIR      65  51  60 CALM      30.31F
NEW PHILLY     FAIR      67  48  50 CALM      30.32F
$$




USA.gov is the U.S. government's official web portal to all federal, state and local government web resources and services.